TimeMDT,TemperatureF,Dew PointF,Humidity,Sea Level PressureIn,VisibilityMPH,Wind Direction,Wind SpeedMPH,Gust SpeedMPH,PrecipitationIn,Events,Conditions,WindDirDegrees,DateUTC
12:55 AM,30.2,19.4,64,30.06,10.0,South,6.9,-,N/A,,Partly Cloudy,180,2013-04-19 06:55:00
1:35 AM,33.8,21.2,60,30.05,10.0,SSE,5.8,-,N/A,,Clear,160,2013-04-19 07:35:00
1:55 AM,32.0,19.4,60,30.05,10.0,Calm,Calm,-,N/A,,Clear,0,2013-04-19 07:55:00
2:15 AM,30.2,19.4,64,30.04,10.0,West,5.8,-,N/A,,Clear,280,2013-04-19 08:15:00
2:55 AM,37.4,17.6,45,30.02,10.0,WNW,5.8,-,N/A,,Clear,300,2013-04-19 08:55:00
3:15 AM,39.2,19.4,45,30.01,10.0,West,17.3,24.2,N/A,,Clear,270,2013-04-19 09:15:00
3:35 AM,41.0,19.4,42,30.01,10.0,West,12.7,25.3,N/A,,Clear,260,2013-04-19 09:35:00
4:15 AM,39.2,19.4,45,30.00,10.0,WNW,6.9,-,N/A,,Partly Cloudy,300,2013-04-19 10:15:00
4:55 AM,39.2,17.6,42,29.99,10.0,North,9.2,-,N/A,,Scattered Clouds,350,2013-04-19 10:55:00
5:15 AM,37.4,19.4,48,29.98,10.0,NNW,6.9,-,N/A,,Clear,340,2013-04-19 11:15:00
5:35 AM,35.6,17.6,48,29.98,10.0,North,5.8,-,N/A,,Clear,350,2013-04-19 11:35:00
5:55 AM,37.4,19.4,48,29.98,10.0,WNW,5.8,-,N/A,,Clear,290,2013-04-19 11:55:00
6:35 AM,33.8,17.6,52,29.99,10.0,Calm,Calm,-,N/A,,Clear,0,2013-04-19 12:35:00
6:55 AM,33.8,17.6,52,29.98,10.0,ENE,6.9,-,N/A,,Clear,60,2013-04-19 12:55:00
7:15 AM,35.6,19.4,52,29.99,10.0,Calm,Calm,-,N/A,,Clear,0,2013-04-19 13:15:00
7:35 AM,37.4,19.4,48,29.99,10.0,NE,5.8,-,N/A,,Clear,50,2013-04-19 13:35:00
8:15 AM,39.2,21.2,49,29.99,10.0,NE,6.9,-,N/A,,Overcast,50,2013-04-19 14:15:00
8:55 AM,41.0,19.4,42,29.97,10.0,ENE,6.9,-,N/A,,Overcast,60,2013-04-19 14:55:00
9:15 AM,42.8,21.2,42,29.97,10.0,ENE,6.9,-,N/A,,Overcast,70,2013-04-19 15:15:00
9:35 AM,42.8,21.2,42,29.96,10.0,NNW,6.9,-,N/A,,Overcast,340,2013-04-19 15:35:00
10:15 AM,44.6,21.2,39,29.95,10.0,West,16.1,26.5,N/A,,Scattered Clouds,270,2013-04-19 16:15:00
10:35 AM,44.6,21.2,39,29.95,10.0,West,16.1,21.9,N/A,,Clear,260,2013-04-19 16:35:00
10:55 AM,46.4,21.2,37,29.94,10.0,West,12.7,23.0,N/A,,Mostly Cloudy,280,2013-04-19 16:55:00
11:15 AM,46.4,21.2,37,29.94,10.0,West,13.8,27.6,N/A,,Scattered Clouds,270,2013-04-19 17:15:00
11:35 AM,48.2,21.2,34,29.94,10.0,WSW,9.2,-,N/A,,Mostly Cloudy,240,2013-04-19 17:35:00
11:55 AM,48.2,21.2,34,29.93,10.0,WSW,12.7,18.4,N/A,,Overcast,250,2013-04-19 17:55:00
12:15 PM,48.2,21.2,34,29.92,10.0,SW,12.7,19.6,N/A,,Mostly Cloudy,230,2013-04-19 18:15:00
12:35 PM,50.0,21.2,32,29.91,10.0,WSW,12.7,21.9,N/A,,Mostly Cloudy,240,2013-04-19 18:35:00
1:16 PM,51.8,23.0,33,29.89,10.0,West,11.5,21.9,N/A,,Partly Cloudy,260,2013-04-19 19:16:00
1:55 PM,53.6,23.0,30,29.87,10.0,West,16.1,24.2,N/A,,Scattered Clouds,260,2013-04-19 19:55:00
2:15 PM,51.8,21.2,30,29.87,10.0,West,16.1,23.0,N/A,,Clear,270,2013-04-19 20:15:00
2:55 PM,51.8,21.2,30,29.86,10.0,WSW,20.7,27.6,N/A,,Partly Cloudy,250,2013-04-19 20:55:00
3:15 PM,51.8,23.0,33,29.85,10.0,WSW,20.7,32.2,N/A,,Partly Cloudy,250,2013-04-19 21:15:00
3:55 PM,51.8,23.0,33,29.84,10.0,West,17.3,28.8,N/A,,Partly Cloudy,260,2013-04-19 21:55:00
4:15 PM,51.8,23.0,33,29.84,10.0,WSW,13.8,26.5,N/A,,Mostly Cloudy,250,2013-04-19 22:15:00
4:36 PM,51.8,24.8,35,29.83,10.0,WSW,19.6,27.6,N/A,,Mostly Cloudy,250,2013-04-19 22:36:00
4:55 PM,51.8,24.8,35,29.83,10.0,West,20.7,25.3,N/A,,Scattered Clouds,260,2013-04-19 22:55:00
5:15 PM,50.0,24.8,37,29.82,10.0,WSW,12.7,26.5,N/A,,Mostly Cloudy,250,2013-04-19 23:15:00
5:35 PM,50.0,23.0,35,29.82,10.0,West,17.3,26.5,N/A,,Overcast,260,2013-04-19 23:35:00
5:55 PM,48.2,24.8,40,29.82,10.0,West,18.4,28.8,N/A,,Overcast,260,2013-04-19 23:55:00
6:15 PM,48.2,24.8,40,29.82,10.0,West,11.5,25.3,N/A,,Scattered Clouds,260,2013-04-20 00:15:00
6:55 PM,48.2,24.8,40,29.82,10.0,West,17.3,26.5,N/A,,Scattered Clouds,260,2013-04-20 00:55:00
7:35 PM,46.4,24.8,43,29.81,10.0,WSW,17.3,27.6,N/A,,Mostly Cloudy,240,2013-04-20 01:35:00
7:55 PM,46.4,26.6,46,29.82,10.0,West,15.0,21.9,N/A,,Mostly Cloudy,260,2013-04-20 01:55:00
8:15 PM,46.4,26.6,46,29.82,10.0,West,11.5,19.6,N/A,,Scattered Clouds,270,2013-04-20 02:15:00
9:15 PM,46.4,26.6,46,29.82,10.0,West,13.8,19.6,N/A,,Partly Cloudy,260,2013-04-20 03:15:00
9:35 PM,46.4,26.6,46,29.82,10.0,West,13.8,19.6,N/A,,Clear,260,2013-04-20 03:35:00
9:55 PM,46.4,26.6,46,29.82,10.0,WSW,10.4,-,N/A,,Clear,250,2013-04-20 03:55:00
10:16 PM,44.6,26.6,49,29.82,10.0,West,8.1,-,N/A,,Clear,270,2013-04-20 04:16:00
10:35 PM,44.6,28.4,53,29.82,10.0,West,6.9,-,N/A,,Clear,280,2013-04-20 04:35:00
10:55 PM,44.6,28.4,53,29.82,10.0,WNW,6.9,-,N/A,,Clear,300,2013-04-20 04:55:00
11:15 PM,44.6,26.6,49,29.82,10.0,West,5.8,-,N/A,,Scattered Clouds,280,2013-04-20 05:15:00
11:35 PM,42.8,28.4,57,29.82,10.0,West,4.6,-,N/A,,Scattered Clouds,260,2013-04-20 05:35:00
11:55 PM,42.8,26.6,53,29.82,10.0,West,3.5,-,N/A,,Mostly Cloudy,270,2013-04-20 05:55:00